This is the latest recevied weather packets stored in our database for station/object K5GTX. If no packets are shown the sender has not sent any weather packets the latest 10 day(s).
| Time | Temp. | Humidity | Pressure | Rain* | Wind** | Luminosity | Snow |
|---|---|---|---|---|---|---|---|
| 1777650778 | 14.44° C | 99% | 1024.5 hPa | 0 mm | - | 69 W/m² | - |
| 1777650475 | 14.44° C | 99% | 1024.4 hPa | 0 mm | - | 110 W/m² | - |
| 1777650172 | 13.89° C | 99% | 1024.2 hPa | 0 mm | - | 98 W/m² | - |
| 1777649870 | 13.89° C | 99% | 1024.4 hPa | 0 mm | - | 70 W/m² | - |
| 1777649567 | 13.89° C | 99% | 1024.6 hPa | 0 mm | - | 91 W/m² | - |
| 1777649263 | 13.89° C | 99% | 1024 hPa | 0 mm | - | 81 W/m² | - |
| 1777648960 | 13.89° C | 99% | 1023.9 hPa | 0 mm | - | 27 W/m² | - |
| 1777648658 | 13.89° C | 99% | 1023.7 hPa | 0 mm | - | 26 W/m² | - |
| 1777648353 | 13.89° C | 99% | 1024.1 hPa | 0 mm | - | 57 W/m² | - |
| 1777648050 | 13.33° C | 99% | 1024 hPa | 0 mm | - | 61 W/m² | - |
| 1777647746 | 13.89° C | 99% | 1024.1 hPa | 0 mm | - | 66 W/m² | - |
| 1777647443 | 13.89° C | 99% | 1024.2 hPa | 0 mm | - | 56 W/m² | - |
| 1777647141 | 13.89° C | 99% | 1024.4 hPa | 0 mm | - | 56 W/m² | - |
| 1777646837 | 13.89° C | 99% | 1024.5 hPa | 0 mm | - | 57 W/m² | - |
| 1777646533 | 13.33° C | 99% | 1024.2 hPa | 0 mm | - | 61 W/m² | - |
| 1777646228 | 13.33° C | 99% | 1024 hPa | 0 mm | - | 57 W/m² | - |
| 1777645927 | 13.33° C | 99% | 1024.1 hPa | 0 mm | - | 32 W/m² | - |
| 1777645623 | 13.33° C | 99% | 1023.8 hPa | 0 mm | - | 43 W/m² | - |
| 1777645319 | 13.33° C | 99% | 1023.5 hPa | 0 mm | - | 53 W/m² | - |
| 1777645014 | 13.33° C | 99% | 1023.5 hPa | 0 mm | - | 61 W/m² | - |
| 1777644712 | 13.33° C | 99% | 1023.7 hPa | 0 mm | - | 43 W/m² | - |
| 1777644409 | 13.33° C | 99% | 1023.4 hPa | 0 mm | - | 51 W/m² | - |
| 1777644105 | 13.33° C | 99% | 1023.6 hPa | 0 mm | - | 60 W/m² | - |
| 1777643802 | 13.33° C | 99% | 1023.9 hPa | 0 mm | - | 70 W/m² | - |
| 1777643499 | 13.33° C | 99% | 1023.7 hPa | 0 mm | - | 69 W/m² | - |
* Rain latest hour (hover to see other rain measurements)
** Current wind speed in m/s (hover to see current wind gust speed)